| time (UTC) | temp F | wind direction | speed MPH | gust MPH | rain 1hr in | rain 24hr in | rain mn in | humidity % | barometer mb |
| 20260506031617 | 57 | 202 | 3.0 | 4.0 | 0.00 | 0.01 | 0.01 | 84 | 1023.6 |
| 20260506031114 | 57 | 69 | 0.0 | 1.0 | 0.00 | 0.01 | 0.01 | 83 | 1023.5 |
| 20260506030613 | 57 | 152 | 1.0 | 2.0 | 0.00 | 0.01 | 0.01 | 83 | 1023.6 |
| 20260506030109 | 57 | 213 | 3.0 | 6.0 | 0.00 | 0.01 | 0.01 | 83 | 1023.6 |
| 20260506025606 | 57 | 221 | 3.0 | 4.0 | 0.00 | 0.01 | 0.01 | 83 | 1023.4 |
| 20260506025102 | 57 | 191 | 2.0 | 4.0 | 0.00 | 0.01 | 0.01 | 83 | 1023.3 |
| 20260506024559 | 57 | 236 | 2.0 | 2.0 | 0.00 | 0.01 | 0.01 | 83 | 1023.3 |
| 20260506024050 | 57 | 207 | 2.0 | 3.0 | 0.00 | 0.01 | 0.01 | 83 | 1023.2 |
| 20260506023546 | 57 | 253 | 2.0 | 3.0 | 0.00 | 0.01 | 0.01 | 83 | 1023.1 |
| 20260506023043 | 58 | 245 | 4.0 | 6.0 | 0.00 | 0.01 | 0.01 | 83 | 1023.0 |
| 20260506022541 | 58 | 184 | 2.0 | 3.0 | 0.00 | 0.01 | 0.01 | 82 | 1023.1 |
| 20260506022039 | 59 | 238 | 2.0 | 3.0 | 0.00 | 0.01 | 0.01 | 82 | 1023.1 |
| 20260506021536 | 59 | 123 | 2.0 | 2.0 | 0.00 | 0.01 | 0.01 | 81 | 1023.2 |
| 20260506021033 | 59 | 199 | 2.0 | 4.0 | 0.00 | 0.01 | 0.01 | 81 | 1023.2 |
| 20260506020531 | 60 | 266 | 4.0 | 6.0 | 0.00 | 0.01 | 0.01 | 79 | 1023.2 |
| 20260506020028 | 59 | 188 | 2.0 | 3.0 | 0.00 | 0.01 | 0.01 | 79 | 1023.0 |
| 20260506015525 | 60 | 260 | 4.0 | 6.0 | 0.00 | 0.01 | 0.01 | 78 | 1023.1 |
| 20260506015022 | 60 | 186 | 3.0 | 3.0 | 0.00 | 0.01 | 0.01 | 77 | 1023.0 |
| 20260506014519 | 59 | 91 | 1.0 | 1.0 | 0.00 | 0.01 | 0.01 | 79 | 1023.0 |
| 20260506014015 | 59 | 238 | 3.0 | 6.0 | 0.00 | 0.01 | 0.01 | 78 | 1023.0 |
| 20260506013513 | 59 | 196 | 2.0 | 3.0 | 0.00 | 0.01 | 0.01 | 78 | 1023.1 |
| 20260506013010 | 59 | 186 | 3.0 | 3.0 | 0.00 | 0.01 | 0.01 | 78 | 1023.1 |
| 20260506012506 | 59 | 128 | 4.0 | 7.0 | 0.00 | 0.01 | 0.01 | 78 | 1023.0 |
| 20260506012003 | 59 | 214 | 2.0 | 3.0 | 0.00 | 0.01 | 0.01 | 78 | 1023.2 |
| 20260506011501 | 59 | 167 | 1.0 | 1.0 | 0.00 | 0.01 | 0.01 | 77 | 1023.0 |
| 20260506010956 | 60 | 220 | 2.0 | 3.0 | 0.00 | 0.01 | 0.01 | 77 | 1023.2 |
| 20260506010456 | 59 | 231 | 4.0 | 4.0 | 0.00 | 0.01 | 0.01 | 78 | 1023.0 |
| 20260506005951 | 59 | 111 | 1.0 | 2.0 | 0.00 | 0.01 | 0.01 | 78 | 1022.8 |
| 20260506005449 | 60 | 228 | 3.0 | 3.0 | 0.00 | 0.01 | 0.01 | 77 | 1022.9 |
| 20260506004944 | 60 | 276 | 4.0 | 7.0 | 0.00 | 0.01 | 0.01 | 77 | 1022.8 |
| 20260506004443 | 61 | 209 | 5.0 | 7.0 | 0.00 | 0.01 | 0.01 | 76 | 1022.9 |
| 20260506003938 | 60 | 196 | 2.0 | 2.0 | 0.00 | 0.01 | 0.01 | 76 | 1022.9 |
| 20260506003434 | 60 | 125 | 1.0 | 1.0 | 0.00 | 0.01 | 0.01 | 77 | 1022.7 |
| 20260506002926 | 60 | 131 | 2.0 | 2.0 | 0.00 | 0.01 | 0.01 | 77 | 1022.7 |
| 20260506002422 | 60 | 187 | 3.0 | 3.0 | 0.00 | 0.01 | 0.01 | 77 | 1022.7 |
| 20260506001917 | 60 | 266 | 4.0 | 8.0 | 0.00 | 0.01 | 0.01 | 77 | 1022.8 |
| 20260506001414 | 60 | 210 | 3.0 | 4.0 | 0.00 | 0.01 | 0.01 | 78 | 1022.6 |
| 20260506000912 | 60 | 198 | 3.0 | 6.0 | 0.00 | 0.01 | 0.01 | 77 | 1022.5 |
| 20260506000409 | 60 | 225 | 6.0 | 9.0 | 0.00 | 0.01 | 0.01 | 77 | 1022.5 |
| 20260505235906 | 60 | 159 | 2.0 | 2.0 | 0.00 | 0.01 | 0.01 | 78 | 1022.7 |
| 20260505235404 | 61 | 213 | 4.0 | 6.0 | 0.00 | 0.01 | 0.01 | 76 | 1022.6 |
| 20260505234901 | 60 | 222 | 5.0 | 7.0 | 0.00 | 0.01 | 0.01 | 78 | 1022.6 |
| 20260505234358 | 60 | 217 | 2.0 | 3.0 | 0.00 | 0.01 | 0.01 | 78 | 1022.9 |
| 20260505233854 | 60 | 188 | 4.0 | 6.0 | 0.00 | 0.01 | 0.01 | 78 | 1022.5 |
| 20260505233352 | 59 | 188 | 2.0 | 2.0 | 0.00 | 0.01 | 0.01 | 79 | 1022.7 |
| 20260505232850 | 59 | 262 | 3.0 | 4.0 | 0.00 | 0.01 | 0.01 | 79 | 1022.9 |
| 20260505232348 | 60 | 248 | 2.0 | 3.0 | 0.00 | 0.01 | 0.01 | 79 | 1022.8 |
| 20260505231844 | 59 | 176 | 6.0 | 8.0 | 0.00 | 0.01 | 0.01 | 78 | 1022.9 |
| 20260505231342 | 59 | 195 | 6.0 | 11.0 | 0.00 | 0.01 | 0.01 | 79 | 1022.8 |
| 20260505230840 | 59 | 110 | 2.0 | 4.0 | 0.00 | 0.01 | 0.01 | 79 | 1022.9 |
| 20260505230336 | 60 | 235 | 6.0 | 11.0 | 0.00 | 0.01 | 0.01 | 78 | 1022.8 |
| 20260505225833 | 59 | 173 | 1.0 | 1.0 | 0.00 | 0.01 | 0.01 | 79 | 1022.9 |
| 20260505225330 | 59 | 213 | 6.0 | 11.0 | 0.00 | 0.01 | 0.01 | 78 | 1022.6 |
| 20260505224825 | 59 | 183 | 3.0 | 3.0 | 0.00 | 0.01 | 0.01 | 79 | 1022.9 |
| 20260505224324 | 60 | 235 | 3.0 | 3.0 | 0.00 | 0.01 | 0.01 | 78 | 1022.8 |
| 20260505223820 | 60 | 172 | 4.0 | 6.0 | 0.00 | 0.01 | 0.01 | 78 | 1022.9 |
| 20260505223317 | 60 | 174 | 2.0 | 2.0 | 0.00 | 0.01 | 0.01 | 79 | 1022.9 |
| 20260505222813 | 60 | 333 | 3.0 | 3.0 | 0.00 | 0.01 | 0.01 | 79 | 1023.0 |
| 20260505222309 | 60 | 246 | 4.0 | 4.0 | 0.00 | 0.01 | 0.01 | 79 | 1023.0 |
| 20260505221806 | 59 | 227 | 3.0 | 3.0 | 0.00 | 0.01 | 0.01 | 79 | 1023.0 |
| 20260505221303 | 60 | 184 | 3.0 | 4.0 | 0.00 | 0.01 | 0.01 | 78 | 1022.8 |
| 20260505220800 | 60 | 216 | 6.0 | 9.0 | 0.00 | 0.01 | 0.01 | 77 | 1023.0 |
| 20260505220257 | 61 | 130 | 0.0 | 0.0 | 0.00 | 0.01 | 0.01 | 76 | 1022.8 |
| 20260505215755 | 61 | 226 | 2.0 | 3.0 | 0.00 | 0.01 | 0.01 | 76 | 1023.0 |
| 20260505215253 | 61 | 139 | 1.0 | 2.0 | 0.00 | 0.01 | 0.01 | 75 | 1023.0 |
| 20260505214750 | 61 | 238 | 3.0 | 6.0 | 0.00 | 0.01 | 0.01 | 75 | 1022.8 |
| 20260505214247 | 61 | 197 | 3.0 | 4.0 | 0.00 | 0.01 | 0.01 | 74 | 1023.2 |
| 20260505213744 | 60 | 146 | 0.0 | 1.0 | 0.00 | 0.01 | 0.01 | 76 | 1023.0 |
| 20260505213242 | 60 | 269 | 4.0 | 6.0 | 0.00 | 0.01 | 0.01 | 76 | 1023.3 |
| 20260505212737 | 60 | 128 | 0.0 | 1.0 | 0.00 | 0.01 | 0.01 | 76 | 1023.1 |
| 20260505212235 | 60 | 229 | 7.0 | 8.0 | 0.00 | 0.01 | 0.01 | 76 | 1023.1 |
| 20260505211732 | 60 | 192 | 3.0 | 3.0 | 0.00 | 0.01 | 0.01 | 76 | 1023.2 |
| 20260505211229 | 60 | 202 | 1.0 | 2.0 | 0.00 | 0.01 | 0.01 | 76 | 1023.2 |
| 20260505210725 | 60 | 169 | 4.0 | 6.0 | 0.00 | 0.01 | 0.01 | 76 | 1023.2 |
| 20260505210222 | 60 | 127 | 1.0 | 2.0 | 0.00 | 0.01 | 0.01 | 76 | 1023.2 |
| 20260505205720 | 59 | 173 | 1.0 | 2.0 | 0.00 | 0.01 | 0.01 | 77 | 1022.9 |
| 20260505205218 | 59 | 195 | 3.0 | 6.0 | 0.00 | 0.01 | 0.01 | 76 | 1023.2 |
| 20260505204715 | 60 | 228 | 3.0 | 3.0 | 0.00 | 0.01 | 0.01 | 76 | 1023.1 |
| 20260505204213 | 60 | 243 | 2.0 | 2.0 | 0.00 | 0.01 | 0.01 | 77 | 1023.0 |
| 20260505203709 | 60 | 182 | 2.0 | 4.0 | 0.00 | 0.01 | 0.01 | 77 | 1023.1 |
| 20260505203206 | 60 | 221 | 2.0 | 2.0 | 0.00 | 0.01 | 0.01 | 77 | 1023.0 |
| 20260505202701 | 60 | 205 | 4.0 | 7.0 | 0.00 | 0.01 | 0.01 | 76 | 1023.0 |
| 20260505202158 | 60 | 142 | 0.0 | 1.0 | 0.00 | 0.01 | 0.01 | 77 | 1022.9 |
| 20260505201654 | 60 | 200 | 4.0 | 7.0 | 0.00 | 0.01 | 0.01 | 77 | 1023.2 |
| 20260505201153 | 60 | 187 | 2.0 | 4.0 | 0.00 | 0.01 | 0.01 | 77 | 1023.2 |
| 20260505200650 | 60 | 158 | 2.0 | 2.0 | 0.00 | 0.01 | 0.01 | 77 | 1023.1 |
| 20260505200147 | 60 | 294 | 2.0 | 2.0 | 0.00 | 0.01 | 0.01 | 78 | 1023.3 |
| 20260505195642 | 60 | 318 | 2.0 | 2.0 | 0.00 | 0.01 | 0.01 | 76 | 1023.3 |
| 20260505195140 | 61 | 13 | 2.0 | 2.0 | 0.00 | 0.01 | 0.01 | 76 | 1023.2 |
| 20260505194637 | 61 | 71 | 0.0 | 1.0 | 0.00 | 0.01 | 0.01 | 76 | 1023.3 |
| 20260505194133 | 60 | 138 | 1.0 | 1.0 | 0.00 | 0.01 | 0.01 | 77 | 1023.2 |
| 20260505193630 | 60 | 23 | 2.0 | 3.0 | 0.00 | 0.01 | 0.01 | 77 | 1023.3 |
| 20260505193127 | 60 | 66 | 0.0 | 0.0 | 0.00 | 0.01 | 0.01 | 79 | 1023.3 |
| 20260505192626 | 59 | 122 | 2.0 | 2.0 | 0.00 | 0.01 | 0.01 | 79 | 1023.3 |
| 20260505192123 | 59 | 99 | 1.0 | 1.0 | 0.00 | 0.01 | 0.01 | 80 | 1023.4 |
| 20260505191621 | 59 | 34 | 1.0 | 1.0 | 0.00 | 0.01 | 0.01 | 79 | 1023.4 |
| 20260505191119 | 60 | 149 | 1.0 | 2.0 | 0.00 | 0.01 | 0.01 | 78 | 1023.4 |
| 20260505190614 | 60 | 85 | 0.0 | 1.0 | 0.00 | 0.01 | 0.01 | 78 | 1023.1 |
| 20260505190109 | 60 | 84 | 0.0 | 0.0 | 0.00 | 0.01 | 0.01 | 78 | 1023.3 |
| 20260505185607 | 59 | 60 | 2.0 | 3.0 | 0.00 | 0.01 | 0.01 | 80 | 1023.1 |
| 20260505185103 | 59 | 69 | 1.0 | 1.0 | 0.00 | 0.01 | 0.01 | 81 | 1023.2 |
| 20260505184559 | 58 | 93 | 2.0 | 3.0 | 0.00 | 0.01 | 0.01 | 81 | 1023.2 |
| 20260505184056 | 59 | 209 | 4.0 | 7.0 | 0.00 | 0.01 | 0.01 | 82 | 1023.3 |
| 20260505183553 | 58 | 110 | 0.0 | 1.0 | 0.00 | 0.01 | 0.01 | 84 | 1023.0 |
| 20260505183051 | 58 | 181 | 1.0 | 2.0 | 0.00 | 0.01 | 0.01 | 83 | 1023.3 |
| 20260505182546 | 57 | 135 | 1.0 | 1.0 | 0.00 | 0.01 | 0.01 | 85 | 1023.4 |
| 20260505182043 | 57 | 152 | 2.0 | 2.0 | 0.00 | 0.01 | 0.01 | 85 | 1023.2 |
| 20260505181540 | 57 | 102 | 0.0 | 0.0 | 0.00 | 0.01 | 0.01 | 86 | 1023.2 |
| 20260505181038 | 57 | 246 | 2.0 | 3.0 | 0.00 | 0.01 | 0.01 | 87 | 1023.2 |
| 20260505180533 | 56 | 137 | 0.0 | 1.0 | 0.00 | 0.01 | 0.01 | 87 | 1023.1 |
| 20260505180032 | 56 | 167 | 2.0 | 4.0 | 0.00 | 0.01 | 0.01 | 87 | 1023.3 |
| 20260505175531 | 56 | 150 | 0.0 | 1.0 | 0.00 | 0.01 | 0.01 | 88 | 1023.1 |
| 20260505175029 | 56 | 158 | 1.0 | 1.0 | 0.00 | 0.01 | 0.01 | 88 | 1023.1 |
| 20260505174526 | 56 | 196 | 2.0 | 2.0 | 0.00 | 0.01 | 0.01 | 88 | 1023.0 |
| 20260505174022 | 55 | 178 | 2.0 | 3.0 | 0.00 | 0.01 | 0.01 | 89 | 1022.8 |
| 20260505173519 | 55 | 232 | 4.0 | 6.0 | 0.00 | 0.01 | 0.01 | 89 | 1022.9 |
| 20260505173015 | 55 | 206 | 2.0 | 2.0 | 0.00 | 0.01 | 0.01 | 89 | 1022.9 |
| 20260505172514 | 55 | 216 | 3.0 | 3.0 | 0.00 | 0.01 | 0.01 | 89 | 1022.9 |
| 20260505172009 | 55 | 182 | 2.0 | 3.0 | 0.00 | 0.01 | 0.01 | 89 | 1022.9 |
| 20260505171505 | 55 | 132 | 0.0 | 1.0 | 0.00 | 0.01 | 0.01 | 90 | 1022.7 |
| 20260505171002 | 55 | 133 | 0.0 | 0.0 | 0.00 | 0.01 | 0.01 | 90 | 1022.8 |
| 20260505170459 | 55 | 229 | 2.0 | 2.0 | 0.00 | 0.01 | 0.01 | 90 | 1022.9 |
| 20260505165954 | 55 | 129 | 0.0 | 1.0 | 0.00 | 0.01 | 0.01 | 91 | 1022.8 |
| 20260505165450 | 55 | 219 | 1.0 | 1.0 | 0.00 | 0.01 | 0.01 | 91 | 1022.8 |
| 20260505164946 | 55 | 88 | 0.0 | 1.0 | 0.00 | 0.01 | 0.01 | 90 | 1022.7 |
| 20260505164442 | 55 | 43 | 1.0 | 2.0 | 0.00 | 0.01 | 0.01 | 89 | 1022.9 |
| 20260505163940 | 55 | 130 | 2.0 | 3.0 | 0.00 | 0.01 | 0.01 | 89 | 1022.8 |
| 20260505163439 | 55 | 62 | 0.0 | 0.0 | 0.00 | 0.01 | 0.01 | 89 | 1022.7 |
| 20260505162937 | 55 | 98 | 0.0 | 1.0 | 0.00 | 0.01 | 0.01 | 89 | 1022.7 |
| 20260505162432 | 55 | 150 | 1.0 | 1.0 | 0.00 | 0.01 | 0.01 | 89 | 1022.6 |
| 20260505161930 | 55 | 148 | 0.0 | 1.0 | 0.00 | 0.01 | 0.01 | 89 | 1022.5 |
| 20260505161421 | 55 | 169 | 3.0 | 4.0 | 0.00 | 0.01 | 0.01 | 89 | 1022.8 |
| 20260505160919 | 54 | 121 | 0.0 | 0.0 | 0.00 | 0.01 | 0.01 | 89 | 1022.5 |
| 20260505160416 | 54 | 140 | 1.0 | 2.0 | 0.00 | 0.01 | 0.01 | 89 | 1022.3 |
| 20260505153356 | 54 | 95 | 0.0 | 0.0 | 0.00 | 0.01 | 0.01 | 90 | 1022.5 |
| 20260505152852 | 54 | 208 | 2.0 | 3.0 | 0.00 | 0.01 | 0.01 | 89 | 1022.3 |
| 20260505152349 | 54 | 186 | 2.0 | 2.0 | 0.00 | 0.01 | 0.01 | 89 | 1022.4 |
| 20260505151844 | 54 | 253 | 3.0 | 3.0 | 0.00 | 0.01 | 0.01 | 89 | 1022.0 |
| 20260505151340 | 54 | 67 | 1.0 | 2.0 | 0.00 | 0.01 | 0.01 | 89 | 1022.1 |
| 20260505150837 | 53 | 171 | 2.0 | 3.0 | 0.00 | 0.01 | 0.01 | 90 | 1022.3 |
| 20260505150335 | 53 | 148 | 1.0 | 2.0 | 0.00 | 0.01 | 0.01 | 90 | 1022.2 |
| 20260505140259 | 52 | 86 | 0.0 | 0.0 | 0.00 | 0.01 | 0.01 | 91 | 1021.8 |
| 20260505130223 | 51 | 131 | 0.0 | 0.0 | 0.00 | 0.01 | 0.01 | 94 | 1021.6 |
| 20260505124713 | 51 | 127 | 0.0 | 0.0 | 0.00 | 0.01 | 0.01 | 93 | 1021.8 |
| 20260505124210 | 51 | 127 | 0.0 | 0.0 | 0.00 | 0.01 | 0.01 | 93 | 1021.9 |
| 20260505123705 | 51 | 117 | 0.0 | 0.0 | 0.00 | 0.01 | 0.01 | 93 | 1021.8 |
| 20260505123202 | 51 | 80 | 0.0 | 0.0 | 0.00 | 0.01 | 0.01 | 93 | 1021.8 |
| 20260505122658 | 51 | 70 | 0.0 | 0.0 | 0.00 | 0.01 | 0.01 | 94 | 1021.6 |
| 20260505122155 | 51 | 70 | 0.0 | 0.0 | 0.00 | 0.01 | 0.01 | 94 | 1021.6 |
| 20260505121647 | 51 | 76 | 0.0 | 0.0 | 0.00 | 0.01 | 0.01 | 94 | 1021.5 |
| 20260505121143 | 51 | 183 | 0.0 | 0.0 | 0.00 | 0.01 | 0.01 | 94 | 1021.5 |
| 20260505120639 | 51 | 132 | 0.0 | 0.0 | 0.00 | 0.01 | 0.01 | 94 | 1021.3 |
| 20260505120135 | 51 | 71 | 0.0 | 0.0 | 0.00 | 0.01 | 0.01 | 93 | 1021.4 |
| 20260505115629 | 51 | 69 | 0.0 | 0.0 | 0.00 | 0.01 | 0.01 | 93 | 1021.4 |
| 20260505115127 | 51 | 75 | 0.0 | 0.0 | 0.00 | 0.01 | 0.01 | 93 | 1021.9 |
| 20260505114618 | 51 | 77 | 0.0 | 0.0 | 0.00 | 0.01 | 0.01 | 93 | 1021.8 |
| 20260505114115 | 51 | 84 | 0.0 | 0.0 | 0.00 | 0.01 | 0.01 | 93 | 1021.5 |
| 20260505113611 | 51 | 73 | 0.0 | 0.0 | 0.00 | 0.01 | 0.01 | 92 | 1022.0 |
| 20260505113107 | 51 | 83 | 0.0 | 0.0 | 0.00 | 0.01 | 0.01 | 92 | 1021.9 |
| 20260505112603 | 51 | 84 | 0.0 | 0.0 | 0.00 | 0.01 | 0.01 | 92 | 1022.0 |
| 20260505112103 | 51 | 119 | 0.0 | 1.0 | 0.00 | 0.01 | 0.01 | 92 | 1021.9 |
| 20260505111601 | 52 | 112 | 0.0 | 0.0 | 0.00 | 0.01 | 0.01 | 92 | 1021.6 |
| 20260505111057 | 52 | 114 | 0.0 | 0.0 | 0.00 | 0.01 | 0.01 | 91 | 1021.9 |
| 20260505110554 | 51 | 78 | 0.0 | 0.0 | 0.00 | 0.01 | 0.01 | 91 | 1021.8 |
| 20260505102027 | 51 | 129 | 0.0 | 0.0 | 0.00 | 0.00 | 0.00 | 90 | 1021.6 |
| 20260505101525 | 51 | 215 | 2.0 | 3.0 | 0.00 | 0.00 | 0.00 | 90 | 1021.6 |
| 20260505101021 | 52 | 135 | 0.0 | 0.0 | 0.00 | 0.00 | 0.00 | 90 | 1021.8 |
| 20260505100518 | 52 | 104 | 0.0 | 0.0 | 0.00 | 0.00 | 0.00 | 89 | 1021.8 |
| 20260505100015 | 52 | 207 | 1.0 | 2.0 | 0.00 | 0.00 | 0.00 | 89 | 1021.5 |
| 20260505095511 | 52 | 164 | 1.0 | 2.0 | 0.00 | 0.00 | 0.00 | 88 | 1021.8 |
| 20260505095007 | 52 | 150 | 1.0 | 1.0 | 0.00 | 0.00 | 0.00 | 88 | 1021.6 |
| 20260505094504 | 52 | 126 | 1.0 | 2.0 | 0.00 | 0.00 | 0.00 | 88 | 1021.9 |
| 20260505094000 | 51 | 138 | 0.0 | 0.0 | 0.00 | 0.00 | 0.00 | 88 | 1022.2 |
| 20260505093457 | 52 | 121 | 0.0 | 0.0 | 0.00 | 0.00 | 0.00 | 88 | 1021.9 |
| 20260505092954 | 52 | 207 | 0.0 | 1.0 | 0.00 | 0.00 | 0.00 | 88 | 1022.1 |
| 20260505092452 | 52 | 189 | 1.0 | 2.0 | 0.00 | 0.00 | 0.00 | 88 | 1022.1 |
| 20260505091949 | 52 | 224 | 2.0 | 2.0 | 0.00 | 0.00 | 0.00 | 88 | 1022.3 |
| 20260505091447 | 51 | 254 | 0.0 | 1.0 | 0.00 | 0.00 | 0.00 | 88 | 1022.2 |
| 20260505090944 | 51 | 164 | 0.0 | 1.0 | 0.00 | 0.00 | 0.00 | 88 | 1022.2 |
| 20260505090443 | 52 | 219 | 1.0 | 2.0 | 0.00 | 0.00 | 0.00 | 88 | 1022.3 |
| 20260505085939 | 52 | 147 | 0.0 | 1.0 | 0.00 | 0.00 | 0.00 | 87 | 1022.4 |
| 20260505085437 | 52 | 167 | 0.0 | 0.0 | 0.00 | 0.00 | 0.00 | 87 | 1022.3 |
| 20260505084935 | 52 | 135 | 0.0 | 0.0 | 0.00 | 0.00 | 0.00 | 86 | 1022.5 |
| 20260505084434 | 52 | 125 | 0.0 | 0.0 | 0.00 | 0.00 | 0.00 | 86 | 1022.5 |
| 20260505083931 | 52 | 121 | 0.0 | 0.0 | 0.00 | 0.00 | 0.00 | 87 | 1022.5 |
| 20260505083428 | 52 | 164 | 1.0 | 1.0 | 0.00 | 0.00 | 0.00 | 87 | 1022.3 |
| 20260505082924 | 51 | 133 | 0.0 | 1.0 | 0.00 | 0.00 | 0.00 | 88 | 1022.4 |
| 20260505082420 | 51 | 119 | 0.0 | 0.0 | 0.00 | 0.00 | 0.00 | 87 | 1022.4 |
| 20260505081917 | 51 | 184 | 1.0 | 1.0 | 0.00 | 0.00 | 0.00 | 87 | 1022.4 |
| 20260505081414 | 51 | 213 | 2.0 | 2.0 | 0.00 | 0.00 | 0.00 | 88 | 1022.6 |
| 20260505080911 | 51 | 171 | 2.0 | 2.0 | 0.00 | 0.00 | 0.00 | 88 | 1022.7 |
| 20260505080407 | 51 | 151 | 1.0 | 2.0 | 0.00 | 0.00 | 0.00 | 88 | 1022.7 |
| 20260505075902 | 51 | 149 | 0.0 | 1.0 | 0.00 | 0.00 | 0.00 | 88 | 1022.9 |
| 20260505075359 | 51 | 180 | 0.0 | 0.0 | 0.00 | 0.00 | 0.00 | 88 | 1022.7 |
| 20260505074857 | 52 | 156 | 1.0 | 2.0 | 0.00 | 0.00 | 0.00 | 87 | 1022.8 |
| 20260505074354 | 52 | 115 | 0.0 | 0.0 | 0.00 | 0.00 | 0.00 | 86 | 1022.7 |
| 20260505073851 | 52 | 226 | 2.0 | 3.0 | 0.00 | 0.00 | 0.00 | 85 | 1022.5 |
| 20260505073349 | 52 | 134 | 1.0 | 2.0 | 0.00 | 0.00 | 0.00 | 84 | 1023.0 |
| 20260505072846 | 52 | 165 | 2.0 | 2.0 | 0.00 | 0.00 | 0.00 | 83 | 1023.1 |
| 20260505072342 | 53 | 77 | 0.0 | 0.0 | 0.00 | 0.00 | 0.00 | 82 | 1022.9 |
| 20260505071838 | 53 | 239 | 2.0 | 3.0 | 0.00 | 0.00 | 0.00 | 82 | 1022.8 |
| 20260505071334 | 53 | 128 | 0.0 | 1.0 | 0.00 | 0.00 | 0.00 | 81 | 1022.7 |
| 20260505070833 | 53 | 66 | 1.0 | 2.0 | 0.00 | 0.00 | 0.00 | 81 | 1022.7 |
| 20260505070329 | 53 | 191 | 3.0 | 3.0 | 0.00 | 0.00 | 0.00 | 82 | 1022.7 |
| 20260505065824 | 53 | 223 | 3.0 | 3.0 | 0.00 | 0.00 | 0.00 | 82 | 1022.5 |
| 20260505065321 | 53 | 294 | 2.0 | 3.0 | 0.00 | 0.00 | 0.00 | 83 | 1022.7 |
| 20260505064818 | 53 | 159 | 1.0 | 1.0 | 0.00 | 0.00 | 0.00 | 83 | 1022.6 |
| 20260505064315 | 53 | 29 | 1.0 | 1.0 | 0.00 | 0.00 | 0.00 | 82 | 1022.5 |
| 20260505063814 | 53 | 146 | 0.0 | 1.0 | 0.00 | 0.00 | 0.00 | 81 | 1022.8 |
| 20260505063309 | 53 | 245 | 5.0 | 7.0 | 0.00 | 0.00 | 0.00 | 80 | 1022.6 |
| 20260505062806 | 53 | 119 | 0.0 | 0.0 | 0.00 | 0.00 | 0.00 | 80 | 1022.8 |
| 20260505062304 | 53 | 145 | 1.0 | 1.0 | 0.00 | 0.00 | 0.00 | 79 | 1022.3 |
| 20260505061800 | 53 | 182 | 1.0 | 2.0 | 0.00 | 0.00 | 0.00 | 79 | 1022.2 |
| 20260505061258 | 53 | 273 | 1.0 | 3.0 | 0.00 | 0.00 | 0.00 | 80 | 1022.2 |
| 20260505060755 | 53 | 295 | 2.0 | 3.0 | 0.00 | 0.00 | 0.00 | 81 | 1022.3 |
| 20260505060252 | 53 | 115 | 1.0 | 1.0 | 0.00 | 0.00 | 0.00 | 83 | 1022.2 |
| 20260505055747 | 53 | 153 | 0.0 | 0.0 | 0.00 | 0.00 | 0.00 | 83 | 1022.1 |
| 20260505055244 | 53 | 215 | 2.0 | 2.0 | 0.00 | 0.00 | 0.00 | 84 | 1022.1 |
| 20260505054741 | 53 | 101 | 0.0 | 0.0 | 0.00 | 0.00 | 0.00 | 83 | 1022.4 |
| 20260505054239 | 53 | 103 | 0.0 | 0.0 | 0.00 | 0.00 | 0.00 | 83 | 1022.3 |
| 20260505053737 | 53 | 108 | 0.0 | 0.0 | 0.00 | 0.00 | 0.00 | 83 | 1022.5 |
| 20260505053234 | 53 | 137 | 0.0 | 0.0 | 0.00 | 0.00 | 0.00 | 83 | 1022.6 |
| 20260505052731 | 53 | 232 | 1.0 | 2.0 | 0.00 | 0.00 | 0.00 | 83 | 1022.6 |
| 20260505052228 | 53 | 118 | 0.0 | 0.0 | 0.00 | 0.00 | 0.00 | 84 | 1022.6 |
| 20260505051725 | 53 | 124 | 0.0 | 0.0 | 0.00 | 0.00 | 0.00 | 85 | 1022.6 |
| 20260505051223 | 53 | 51 | 1.0 | 1.0 | 0.00 | 0.00 | 0.00 | 86 | 1022.7 |
| 20260505050721 | 54 | 85 | 0.0 | 1.0 | 0.00 | 0.00 | 0.00 | 85 | 1022.7 |
| 20260505050219 | 54 | 136 | 0.0 | 1.0 | 0.00 | 0.00 | 0.00 | 85 | 1023.0 |
| 20260505041642 | 55 | 129 | 0.0 | 0.0 | 0.00 | 0.00 | 0.00 | 87 | 1022.6 |
| 20260505041134 | 54 | 156 | 1.0 | 2.0 | 0.00 | 0.00 | 0.00 | 87 | 1022.2 |
| 20260505040631 | 54 | 82 | 0.0 | 0.0 | 0.00 | 0.00 | 0.00 | 87 | 1022.5 |
| 20260505040128 | 54 | 117 | 0.0 | 1.0 | 0.00 | 0.00 | 0.00 | 87 | 1022.3 |
| 20260505035625 | 55 | 173 | 1.0 | 1.0 | 0.00 | 0.00 | 0.00 | 87 | 1022.1 |
| 20260505035121 | 54 | 76 | 0.0 | 0.0 | 0.00 | 0.00 | 0.00 | 87 | 1022.2 |
| 20260505034618 | 55 | 62 | 0.0 | 0.0 | 0.00 | 0.00 | 0.00 | 87 | 1022.2 |
| 20260505034114 | 55 | 65 | 1.0 | 1.0 | 0.00 | 0.00 | 0.00 | 87 | 1021.9 |
| 20260505033611 | 55 | 220 | 2.0 | 3.0 | 0.00 | 0.00 | 0.00 | 87 | 1021.8 |
| 20260505033110 | 55 | 199 | 1.0 | 2.0 | 0.00 | 0.00 | 0.00 | 87 | 1021.6 |
| 20260505032607 | 55 | 115 | 0.0 | 0.0 | 0.00 | 0.00 | 0.00 | 87 | 1021.8 |
| 20260505032103 | 55 | 55 | 0.0 | 0.0 | 0.00 | 0.00 | 0.00 | 86 | 1021.8 |